Location: El Diablo
(32.4667°N, 116.4500°W)
Time: 01:46:22
(UTC+00:00)

Cosmos 1758 Rocket - Pass Details

Date: 10 September 2024
Orbit: 597 x 632 km, 82.5° (Epoch: 06 October)

Event Time Altitude Azimuth Distance (km) Brightness Sun altitude
Rises 12:19:28 0° 340° (NNW) 2,895 7.0 -14.8°
Reaches altitude 10° 12:21:56 10° 329° (NNW) 1,979 6.0 -14.3°
Maximum altitude 12:25:40 28° 270° (W) 1,152 4.4 -13.5°
Drops below altitude 10° 12:29:22 10° 211° (SSW) 1,949 5.7 -12.8°
Enters shadow 12:30:19 - 205° (SSW) 2,288 6.1 -12.6°
